Date String (YYYY-MM-DD hh:mm:ss) UTC,Instrument flags,Ambient pressure (hPa),Sample flow (lpm),Bypass flow (lpm),Sample temperature (°C),Ambient temperature (°C),ASC tube jacket temperature (°C),LED temperature (°C),Box temperature (°C),Sample RH (%),Span deviation,Mass concentration (μg/m³),Mass concentration (μg/m³),Mass concentration (μg/m³)
DateTimeUTC,F1_M11,P_M11,Q1_M11,Q2_M11,T1_M11,T2_M11,T3_M11,T4_M11,T5_M11,U1_M11,ZSPAN_M11,X0_M11,X2_M11,X1_M11
2022-01-20 10:00:00,,0832.2,4.99,0.00,22.4,22.6,00.0,31.2,24.2,10.1,-000.5,0010.45,0009.07,0008.77
2022-01-20 10:01:00,,0832.2,5.00,0.00,22.4,22.4,00.0,31.2,24.2,10.1,-000.5,0010.72,0009.11,0008.78
2022-01-20 10:02:00,,0832.2,5.01,0.00,22.4,22.2,00.0,31.2,24.1,10.1,-000.7,0010.71,0009.09,0008.78
2022-01-20 10:03:00,,0832.2,5.00,0.00,22.3,22.0,00.0,31.2,24.1,10.1,-000.7,0010.74,0009.09,0008.78
2022-01-20 10:04:00,,0832.2,5.00,0.00,22.3,21.9,00.0,31.2,24.0,10.1,-000.5,0010.82,0009.12,0008.78
2022-01-20 10:05:00,,0832.2,4.99,0.00,22.3,21.9,00.0,31.2,24.0,10.1,-000.3,0010.85,0009.13,0008.78
2022-01-20 10:06:00,,0832.2,5.02,0.00,22.3,21.8,00.0,31.2,24.0,10.1,-000.1,0010.97,0009.16,0008.79
2022-01-20 10:07:00,,0832.2,5.00,0.00,22.3,21.7,00.0,31.2,24.0,10.1,0000.3,0010.99,0009.17,0008.80
2022-01-20 10:08:00,,0832.2,5.00,0.00,22.3,21.7,00.0,31.2,24.0,10.2,0000.3,0010.97,0009.16,0008.80
2022-01-20 10:09:00,,0832.2,4.99,0.00,22.2,21.6,00.0,31.2,23.9,10.2,0000.2,0011.12,0009.18,0008.80
2022-01-20 10:10:00,,0832.2,5.02,0.00,22.2,21.6,00.0,31.2,23.9,10.2,0000.1,0011.23,0009.21,0008.81
2022-01-20 10:11:00,,0832.2,5.00,0.00,22.2,21.5,00.0,31.2,23.9,10.2,0000.1,0011.16,0009.16,0008.77
2022-01-20 10:12:00,,0832.1,4.99,0.00,22.1,21.4,00.0,31.2,23.8,10.2,0000.1,0010.95,0009.14,0008.76
2022-01-20 10:13:00,,0832.1,4.99,0.00,22.1,21.4,00.0,31.2,23.7,10.2,0000.9,0010.99,0009.16,0008.77
2022-01-20 10:14:00,,0832.1,5.01,0.00,22.1,21.8,00.0,31.2,23.8,10.2,0001.1,0011.12,0009.19,0008.77
2022-01-20 10:15:00,,0832.1,5.00,0.00,22.3,22.6,00.0,31.2,24.1,10.2,0001.0,0011.07,0009.16,0008.75
2022-01-20 10:16:00,,0832.1,5.01,0.00,22.4,23.3,00.0,31.2,24.4,10.1,0001.1,0010.99,0009.13,0008.74
2022-01-20 10:17:00,,0832.1,5.01,0.00,22.5,23.2,00.0,31.3,24.4,10.0,0001.6,0010.92,0009.11,0008.72
2022-01-20 10:18:00,,0832.1,4.99,0.00,22.5,22.9,00.0,31.3,24.4,10.0,0001.4,0010.89,0009.09,0008.70
2022-01-20 10:19:00,,0832.1,5.01,0.00,22.5,22.7,00.0,31.3,24.3,10.0,0001.5,0010.98,0009.10,0008.69
2022-01-20 10:20:00,,0832.1,5.00,0.00,22.5,22.4,00.0,31.3,24.2,10.1,0002.0,0011.00,0009.10,0008.69
2022-01-20 10:21:00,,0832.1,4.99,0.00,22.4,22.2,00.0,31.3,24.2,10.1,0002.0,0010.94,0009.10,0008.69
2022-01-20 10:22:00,,0832.1,5.00,0.00,22.4,22.1,00.0,31.3,24.1,10.1,0001.8,0010.93,0009.11,0008.71
2022-01-20 10:23:00,,0832.1,5.00,0.00,22.4,22.0,00.0,31.3,24.1,10.1,0001.7,0011.01,0009.16,0008.75
2022-01-20 10:24:00,,0832.1,4.99,0.00,22.4,21.9,00.0,31.3,24.1,10.1,0001.2,0011.00,0009.17,0008.77
2022-01-20 10:25:00,,0832.1,4.99,0.00,22.3,21.8,00.0,31.3,24.0,10.1,0000.8,0010.87,0009.15,0008.78
2022-01-20 10:26:00,,0832.1,5.01,0.00,22.3,21.7,00.0,31.3,24.0,10.1,0000.9,0010.81,0009.16,0008.81
2022-01-20 10:27:00,,0832.0,4.99,0.00,22.3,21.6,00.0,31.3,23.9,10.2,0000.7,0010.94,0009.22,0008.86
2022-01-20 10:28:00,,0832.1,5.01,0.00,22.2,21.5,00.0,31.2,23.9,10.2,0000.1,0010.99,0009.26,0008.90
2022-01-20 10:29:00,,0832.1,5.00,0.00,22.2,21.4,00.0,31.2,23.8,10.2,0000.0,0011.01,0009.29,0008.94
2022-01-20 10:30:00,,0832.1,4.99,0.00,22.1,21.3,00.0,31.2,23.8,10.3,-000.4,0011.03,0009.32,0008.97
2022-01-20 10:31:00,,0832.1,5.01,0.00,22.1,21.3,00.0,31.2,23.8,10.3,-000.9,0010.93,0009.32,0008.99
2022-01-20 10:32:00,,0832.1,4.99,0.00,22.1,21.3,00.0,31.2,23.8,10.3,-000.9,0010.88,0009.33,0009.01
2022-01-20 10:33:00,,0832.1,5.00,0.00,22.1,21.3,00.0,31.1,23.7,10.3,-000.7,0010.93,0009.36,0009.02
2022-01-20 10:34:00,,0832.1,5.01,0.00,22.1,21.5,00.0,31.2,23.8,10.3,-000.9,0010.90,0009.34,0009.02
2022-01-20 10:35:00,,0832.1,5.00,0.00,22.2,22.3,00.0,31.2,24.0,10.3,-000.9,0010.91,0009.33,0008.99
2022-01-20 10:36:00,,0832.1,4.98,0.00,22.3,23.1,00.0,31.2,24.3,10.2,-000.8,0011.06,0009.36,0008.97
2022-01-20 10:37:00,,0832.1,5.01,0.00,22.4,23.1,00.0,31.2,24.4,10.1,-001.1,0011.19,0009.38,0008.94
2022-01-20 10:38:00,,0832.1,5.00,0.00,22.5,22.9,00.0,31.3,24.4,10.1,-001.0,0011.16,0009.36,0008.92
2022-01-20 10:39:00,,0832.0,5.00,0.00,22.5,22.7,00.0,31.3,24.3,10.1,-000.9,0011.19,0009.37,0008.89
2022-01-20 10:40:00,,0832.1,5.01,0.00,22.4,22.5,00.0,31.3,24.2,10.1,-000.7,0011.19,0009.35,0008.87
2022-01-20 10:41:00,,0832.0,5.01,0.00,22.4,22.2,00.0,31.3,24.2,10.1,-000.8,0011.16,0009.32,0008.84
2022-01-20 10:42:00,,0832.1,4.99,0.00,22.4,22.1,00.0,31.3,24.1,10.1,-001.0,0011.47,0009.33,0008.85
2022-01-20 10:43:00,,0832.1,4.99,0.00,22.4,22.0,00.0,31.3,24.1,10.1,-001.1,0011.42,0009.31,0008.85
2022-01-20 10:44:00,,0832.1,5.00,0.00,22.3,21.9,00.0,31.3,24.1,10.1,-001.0,0011.37,0009.29,0008.85
2022-01-20 10:45:00,,0832.1,4.99,0.00,22.3,21.8,00.0,31.3,24.0,10.2,-001.0,0011.42,0009.31,0008.87
2022-01-20 10:46:00,,0832.1,5.02,0.00,22.3,21.7,00.0,31.3,24.0,10.2,-000.7,0011.50,0009.37,0008.90
2022-01-20 10:47:00,,0832.1,5.00,0.00,22.3,21.7,00.0,31.2,24.0,10.2,-000.8,0011.39,0009.37,0008.95
2022-01-20 10:48:00,,0832.1,4.99,0.00,22.3,21.6,00.0,31.2,24.0,10.2,-000.8,0011.34,0009.37,0008.99
2022-01-20 10:49:00,,0832.1,5.00,0.00,22.2,21.6,00.0,31.2,23.9,10.2,-001.1,0011.39,0009.40,0009.03
2022-01-20 10:50:00,,0832.1,5.01,0.00,22.2,21.5,00.0,31.2,23.9,10.2,-001.2,0011.35,0009.40,0009.07
2022-01-20 10:51:00,,0832.1,4.98,0.00,22.2,21.5,00.0,31.2,23.9,10.2,-001.3,0011.36,0009.43,0009.11
2022-01-20 10:52:00,,0832.1,5.00,0.00,22.2,21.5,00.0,31.2,23.9,10.2,-001.1,0011.37,0009.47,0009.15
2022-01-20 10:53:00,,0832.1,5.01,0.00,22.2,21.4,00.0,31.2,23.9,10.2,-000.9,0011.14,0009.47,0009.16
2022-01-20 10:54:00,,0832.1,4.99,0.00,22.2,21.5,00.0,31.2,23.9,10.2,-001.0,0011.16,0009.49,0009.16
2022-01-20 10:55:00,,0832.1,5.00,0.00,22.2,22.2,00.0,31.2,24.0,10.2,-001.1,0011.19,0009.51,0009.17
2022-01-20 10:56:00,,0832.1,5.00,0.00,22.4,23.0,00.0,31.2,24.3,10.1,-001.3,0011.16,0009.51,0009.18
2022-01-20 10:57:00,,0832.1,4.99,0.00,22.5,23.3,00.0,31.3,24.5,10.1,-001.5,0011.07,0009.47,0009.17
2022-01-20 10:58:00,,0832.1,5.01,0.00,22.5,23.0,00.0,31.3,24.5,10.1,-001.4,0011.06,0009.46,0009.17
2022-01-20 10:59:00,,0832.1,5.00,0.00,22.5,22.8,00.0,31.3,24.4,10.1,-001.3,0011.05,0009.47,0009.18
